Change the Weather History Date:

Sunday, November 17, 2013

  Actual Average Record
Temperature  
Mean Temperature 57 °F -  
Max Temperature 64 °F 56 °F 66 °F (2006)
Min Temperature 50 °F 43 °F 33 °F (2007)
Degree Days  
Heating Degree Days 8    
Growing Degree Days 7 (Base 50)    
Moisture  
Dew Point 47 °F    
Average Humidity 75    
Maximum Humidity 88    
Minimum Humidity 52    
Precipitation  
Precipitation 0.00 in - - ()
Sea Level Pressure  
Sea Level Pressure 30.08 in    
Wind  
Wind Speed 4 mph ()    
Max Wind Speed 10 mph    
Max Gust Speed -    
Visibility 6.2 miles    
Events Rain    
Averages and records for this station are not official NWS values.
T = Trace of Precipitation, MM = Missing Value Source: Averaged Metar Reports

Daily Weather History Graph

Daily Weather History Graph

Search for Another Location

Airport or City:

Trip Planner

Search our weather history database for the weather conditions in past years. The results will help you decide how hot, cold, wet, or windy it might be!

Date:

Astronomy

Nov. 17, 2013 Rise Set
Actual Time 7:28 AM CET 5:05 PM CET
Civil Twilight 6:57 AM CET 5:36 PM CET
Nautical Twilight 6:22 AM CET 6:11 PM CET
Astronomical Twilight 5:48 AM CET 6:45 PM CET
Moon 5:11 PM CET (11/17) 7:06 AM CET (11/17)
Length of Visible Light 10h 38m
Length of Day
9h 36m
Full, 100% of the Moon is Illuminated
Nov 17
Full
Nov 17
Full
Nov 25
Last Quarter
Dec 3
New
Dec 9
First Quarter

Hourly Weather History & Observations

Time (CET) Temp. Dew Point Humidity Pressure Visibility Wind Dir Wind Speed Gust Speed Precip Events Conditions
12:00 AM 50.0 °F 46.4 °F 87% 30.09 in 6.2 mi North 5.8 mph - N/A   Unknown
12:30 AM 51.8 °F 46.4 °F 82% 30.09 in 6.2 mi North 5.8 mph - N/A   Unknown
1:00 AM 50.0 °F 44.6 °F 82% 30.09 in 6.2 mi North 4.6 mph - N/A   Unknown
1:30 AM 50.0 °F 46.4 °F 87% 30.09 in 6.2 mi NNE 4.6 mph - N/A   Unknown
2:00 AM 50.0 °F 44.6 °F 82% 30.12 in 6.2 mi Variable 3.5 mph - N/A   Unknown
2:30 AM 50.0 °F 44.6 °F 82% 30.09 in 6.2 mi North 4.6 mph - N/A   Unknown
3:00 AM 50.0 °F 46.4 °F 87% 30.12 in 6.2 mi North 5.8 mph - N/A   Unknown
3:30 AM 50.0 °F 46.4 °F 87% 30.09 in 6.2 mi North 4.6 mph - N/A   Unknown
4:00 AM 50.0 °F 46.4 °F 87% 30.09 in 6.2 mi NNE 3.5 mph - N/A   Unknown
4:30 AM 50.0 °F 46.4 °F 87% 30.09 in 6.2 mi North 4.6 mph - N/A   Unknown
5:00 AM 50.0 °F 46.4 °F 87% 30.09 in 6.2 mi North 3.5 mph - N/A   Unknown
5:30 AM 50.0 °F 46.4 °F 87% 30.09 in 6.2 mi North 3.5 mph - N/A   Overcast
6:00 AM 51.8 °F 46.4 °F 82% 30.09 in 6.2 mi North 4.6 mph - N/A   Overcast
6:30 AM 51.8 °F 46.4 °F 82% 30.09 in 6.2 mi North 4.6 mph - N/A   Overcast
7:00 AM 51.8 °F 46.4 °F 82% 30.12 in 6.2 mi NNE 4.6 mph - N/A Rain Light Rain
7:30 AM 51.8 °F 46.4 °F 82% 30.12 in 6.2 mi North 4.6 mph - N/A Rain Light Rain
8:00 AM 51.8 °F 48.2 °F 88% 30.12 in 6.2 mi NNE 3.5 mph - N/A Rain Light Rain
8:30 AM 51.8 °F 48.2 °F 88% 30.12 in 6.2 mi North 3.5 mph - N/A Rain Light Rain
9:00 AM 53.6 °F 48.2 °F 82% 30.15 in 6.2 mi North 4.6 mph - N/A   Overcast
9:30 AM 53.6 °F 50.0 °F 88% 30.15 in 6.2 mi North 3.5 mph - N/A   Overcast
10:00 AM 55.4 °F 50.0 °F 82% 30.15 in 6.2 mi NNE 4.6 mph - N/A   Overcast
10:30 AM 59.0 °F 48.2 °F 67% 30.15 in 6.2 mi Variable 3.5 mph - N/A   Overcast
11:00 AM 60.8 °F 48.2 °F 63% 30.12 in 6.2 mi NE 3.5 mph - N/A   Overcast
11:30 AM 60.8 °F 46.4 °F 59% 30.09 in 6.2 mi NE 6.9 mph - N/A   Mostly Cloudy
12:00 PM 62.6 °F 48.2 °F 59% 30.06 in 6.2 mi ENE 10.4 mph - N/A   Unknown
12:30 PM 64.4 °F 48.2 °F 56% 30.06 in 6.2 mi Variable 4.6 mph - N/A   Unknown
1:00 PM 62.6 °F 46.4 °F 55% 30.09 in 6.2 mi ESE 8.1 mph - N/A   Scattered Clouds
1:30 PM 62.6 °F 44.6 °F 52% 30.06 in 6.2 mi East 4.6 mph - N/A   Overcast
2:00 PM 62.6 °F 44.6 °F 52% 30.06 in 6.2 mi Variable 3.5 mph - N/A   Overcast
2:30 PM 62.6 °F 44.6 °F 52% 30.06 in 6.2 mi East 4.6 mph - N/A   Overcast
3:00 PM 62.6 °F 44.6 °F 52% 30.06 in 6.2 mi Calm Calm - N/A   Overcast
3:30 PM 59.0 °F 48.2 °F 67% 30.06 in 6.2 mi NE 4.6 mph - N/A Rain Light Rain
4:00 PM 59.0 °F 50.0 °F 72% 30.06 in 6.2 mi North 3.5 mph - N/A   Overcast
4:30 PM 59.0 °F 48.2 °F 67% 30.06 in 6.2 mi NNE 6.9 mph - N/A   Overcast
5:00 PM 59.0 °F 46.4 °F 63% 30.06 in 6.2 mi Variable 3.5 mph - N/A   Overcast
5:30 PM 59.0 °F 46.4 °F 63% 30.04 in 6.2 mi Variable 2.3 mph - N/A   Overcast
6:00 PM 57.2 °F 46.4 °F 67% 30.04 in 6.2 mi Variable 2.3 mph - N/A   Mostly Cloudy
6:30 PM 55.4 °F 48.2 °F 77% 30.04 in 6.2 mi Calm Calm - N/A   Unknown
7:00 PM 53.6 °F 48.2 °F 82% 30.04 in 6.2 mi NNE 3.5 mph - N/A   Unknown
7:30 PM 53.6 °F 46.4 °F 77% 30.01 in 5.6 mi Variable 3.5 mph - N/A   Unknown
8:00 PM 51.8 °F 46.4 °F 82% 30.04 in 6.2 mi Calm Calm - N/A   Mostly Cloudy
8:30 PM 55.4 °F 48.2 °F 77% 30.04 in 6.2 mi Variable 3.5 mph - N/A   Mostly Cloudy
9:00 PM 55.4 °F 48.2 °F 77% 30.04 in 6.2 mi North 3.5 mph - N/A   Overcast
9:30 PM 53.6 °F 48.2 °F 82% 30.04 in 5.6 mi NNE 3.5 mph - N/A   Overcast
10:00 PM 53.6 °F 48.2 °F 82% 30.04 in 6.2 mi North 3.5 mph - N/A   Overcast
10:30 PM 55.4 °F 48.2 °F 77% 30.01 in 6.2 mi NNE 3.5 mph - N/A   Overcast
11:00 PM 55.4 °F 48.2 °F 77% 30.01 in 6.2 mi Variable 2.3 mph - N/A   Overcast
11:30 PM 55.4 °F 48.2 °F 77% 30.01 in 6.2 mi North 4.6 mph - N/A   Overcast